TimeCST,TemperatureF,Dew PointF,Humidity,Sea Level PressureIn,VisibilityMPH,Wind Direction,Wind SpeedMPH,Gust SpeedMPH,PrecipitationIn,Events,Conditions,WindDirDegrees,DateUTC
12:52 AM,66.9,64.9,93,30.00,10.0,SE,9.2,-,N/A,,Clear,140,2012-12-04 06:52:00
1:52 AM,68.0,64.9,90,30.00,10.0,South,6.9,-,N/A,,Clear,170,2012-12-04 07:52:00
2:52 AM,66.9,64.9,93,29.99,10.0,SSE,9.2,-,N/A,,Clear,150,2012-12-04 08:52:00
3:52 AM,64.0,63.0,96,30.00,8.0,East,4.6,-,N/A,,Clear,100,2012-12-04 09:52:00
4:52 AM,64.0,63.0,96,30.01,4.0,East,4.6,-,N/A,,Clear,80,2012-12-04 10:52:00
5:02 AM,64.4,64.4,100,30.01,1.8,East,4.6,-,N/A,,Clear,80,2012-12-04 11:02:00
5:13 AM,64.4,62.6,94,30.02,0.5,East,4.6,-,N/A,Fog,Fog,90,2012-12-04 11:13:00
5:24 AM,64.4,62.6,94,30.02,0.5,East,3.5,-,N/A,Fog,Fog,80,2012-12-04 11:24:00
5:33 AM,62.6,62.6,100,30.03,0.5,Calm,Calm,-,N/A,Fog,Fog,0,2012-12-04 11:33:00
5:52 AM,64.9,64.0,97,30.03,0.5,East,4.6,-,N/A,Fog,Fog,100,2012-12-04 11:52:00
6:01 AM,62.6,62.6,100,30.03,0.2,Calm,Calm,-,N/A,Fog,Fog,0,2012-12-04 12:01:00
6:18 AM,62.6,62.6,100,30.04,0.5,Calm,Calm,-,N/A,Fog,Fog,0,2012-12-04 12:18:00
6:27 AM,62.6,60.8,94,30.05,0.2,NE,3.5,-,N/A,Fog,Fog,50,2012-12-04 12:27:00
6:52 AM,62.1,61.0,96,30.05,0.2,Calm,Calm,-,N/A,Fog,Fog,0,2012-12-04 12:52:00
7:30 AM,60.8,59.0,94,30.06,0.2,SE,5.8,-,N/A,Fog,Fog,140,2012-12-04 13:30:00
7:52 AM,64.0,63.0,96,30.06,0.2,SSE,4.6,-,N/A,Fog,Fog,150,2012-12-04 13:52:00
8:06 AM,66.2,66.2,100,30.06,0.5,SSE,3.5,-,N/A,Fog,Fog,150,2012-12-04 14:06:00
8:12 AM,68.0,66.2,94,30.06,2.5,SSE,3.5,-,N/A,,Mostly Cloudy,150,2012-12-04 14:12:00
8:16 AM,68.0,66.2,94,30.06,5.0,SSE,3.5,-,N/A,,Clear,160,2012-12-04 14:16:00
8:52 AM,71.1,70.0,96,30.08,10.0,South,6.9,-,N/A,,Clear,170,2012-12-04 14:52:00
9:52 AM,80.1,69.1,69,30.10,10.0,South,12.7,-,N/A,,Partly Cloudy,180,2012-12-04 15:52:00
10:52 AM,82.0,66.0,58,30.09,10.0,South,13.8,21.9,N/A,,Partly Cloudy,170,2012-12-04 16:52:00
11:52 AM,84.0,64.9,53,30.08,10.0,South,12.7,21.9,N/A,,Partly Cloudy,180,2012-12-04 17:52:00
12:52 PM,87.1,63.0,44,30.06,10.0,SSW,9.2,17.3,N/A,,Partly Cloudy,200,2012-12-04 18:52:00
1:52 PM,87.1,62.1,43,30.03,10.0,SSW,10.4,-,N/A,,Scattered Clouds,200,2012-12-04 19:52:00
2:52 PM,87.1,62.1,43,30.01,10.0,SSW,5.8,-,N/A,,Partly Cloudy,200,2012-12-04 20:52:00
3:52 PM,87.1,61.0,41,30.01,10.0,Calm,Calm,-,N/A,,Clear,0,2012-12-04 21:52:00
4:52 PM,82.9,66.9,58,30.01,10.0,East,15.0,21.9,N/A,,Partly Cloudy,100,2012-12-04 22:52:00
5:52 PM,80.1,68.0,67,30.04,10.0,SE,16.1,-,N/A,,Overcast,130,2012-12-04 23:52:00
6:52 PM,75.9,68.0,76,30.06,10.0,SSE,8.1,-,N/A,,Scattered Clouds,150,2012-12-05 00:52:00
7:52 PM,75.9,68.0,76,30.09,10.0,South,6.9,-,N/A,,Mostly Cloudy,170,2012-12-05 01:52:00
8:52 PM,73.9,68.0,82,30.10,10.0,SSE,5.8,-,N/A,,Scattered Clouds,160,2012-12-05 02:52:00
9:52 PM,73.0,68.0,84,30.10,10.0,South,6.9,-,N/A,,Clear,180,2012-12-05 03:52:00
10:52 PM,72.0,68.0,87,30.09,10.0,South,8.1,-,N/A,,Clear,190,2012-12-05 04:52:00
11:52 PM,71.1,68.0,90,30.10,10.0,SSE,4.6,-,N/A,,Partly Cloudy,160,2012-12-05 05:52:00